| time (UTC) | temp C | wind direction | speed KPH | gust KPH | rain 1hr cm | rain 24hr cm | rain mn cm | humidity % | barometer mb |
| 20260502170214 | 21 | 315 | 1.6 | 4.8 | 0.00 | 0.00 | 0.00 | 59 | 1024.3 |
| 20260502164201 | 20 | 19 | 1.6 | 3.2 | 0.00 | 0.00 | 0.00 | 61 | 1024.5 |
| 20260502163656 | 20 | 109 | 4.8 | 8.0 | 0.00 | 0.00 | 0.00 | 61 | 1024.5 |
| 20260502163153 | 20 | 6 | 0.0 | 3.2 | 0.00 | 0.00 | 0.00 | 61 | 1024.3 |
| 20260502162650 | 20 | 68 | 3.2 | 8.0 | 0.00 | 0.00 | 0.00 | 62 | 1024.5 |
| 20260502162147 | 20 | 19 | 1.6 | 3.2 | 0.00 | 0.00 | 0.00 | 62 | 1024.5 |
| 20260502161644 | 20 | 9 | 3.2 | 3.2 | 0.00 | 0.00 | 0.00 | 63 | 1024.7 |
| 20260502161141 | 20 | 9 | 3.2 | 4.8 | 0.00 | 0.00 | 0.00 | 66 | 1024.3 |
| 20260502160639 | 20 | 311 | 1.6 | 4.8 | 0.00 | 0.00 | 0.00 | 66 | 1024.3 |
| 20260502160137 | 20 | 273 | 1.6 | 3.2 | 0.00 | 0.00 | 0.00 | 68 | 1024.1 |
| 20260502152051 | 17 | 262 | 4.8 | 8.0 | 0.00 | 0.00 | 0.00 | 75 | 1024.0 |
| 20260502151548 | 17 | 26 | 0.0 | 8.0 | 0.00 | 0.00 | 0.00 | 76 | 1024.2 |
| 20260502151046 | 17 | 25 | 1.6 | 4.8 | 0.00 | 0.00 | 0.00 | 78 | 1024.2 |
| 20260502150543 | 17 | 9 | 3.2 | 4.8 | 0.00 | 0.00 | 0.00 | 78 | 1024.2 |
| 20260502130428 | 12 | 47 | 0.0 | 1.6 | 0.00 | 0.00 | 0.00 | 96 | 1022.8 |
| 20260502123410 | 11 | 318 | 0.0 | 1.6 | 0.00 | 0.00 | 0.00 | 97 | 1022.6 |
| 20260502122908 | 11 | 296 | 0.0 | 1.6 | 0.00 | 0.00 | 0.00 | 97 | 1022.4 |
| 20260502122404 | 11 | 330 | 0.0 | 0.0 | 0.00 | 0.00 | 0.00 | 97 | 1022.3 |
| 20260502121902 | 11 | 335 | 0.0 | 0.0 | 0.00 | 0.00 | 0.00 | 97 | 1022.1 |
| 20260502121359 | 11 | 338 | 0.0 | 1.6 | 0.00 | 0.00 | 0.00 | 97 | 1022.2 |
| 20260502120857 | 11 | 27 | 1.6 | 1.6 | 0.00 | 0.00 | 0.00 | 97 | 1022.1 |
| 20260502120353 | 11 | 333 | 0.0 | 1.6 | 0.00 | 0.00 | 0.00 | 97 | 1022.2 |
| 20260502115850 | 11 | 322 | 0.0 | 1.6 | 0.00 | 0.00 | 0.00 | 97 | 1022.0 |
| 20260502115347 | 11 | 314 | 0.0 | 1.6 | 0.00 | 0.00 | 0.00 | 97 | 1021.9 |
| 20260502114837 | 11 | 344 | 0.0 | 0.0 | 0.00 | 0.00 | 0.00 | 97 | 1022.0 |
| 20260502114334 | 11 | 258 | 0.0 | 0.0 | 0.00 | 0.00 | 0.00 | 97 | 1021.8 |
| 20260502113832 | 11 | 330 | 0.0 | 0.0 | 0.00 | 0.00 | 0.00 | 97 | 1021.9 |
| 20260502113329 | 11 | 318 | 1.6 | 1.6 | 0.00 | 0.00 | 0.00 | 97 | 1021.7 |
| 20260502112827 | 11 | 318 | 0.0 | 0.0 | 0.00 | 0.00 | 0.00 | 97 | 1021.7 |
| 20260502112324 | 11 | 318 | 0.0 | 0.0 | 0.00 | 0.00 | 0.00 | 97 | 1021.7 |
| 20260502111822 | 11 | 323 | 0.0 | 0.0 | 0.00 | 0.00 | 0.00 | 97 | 1021.7 |
| 20260502111319 | 11 | 343 | 0.0 | 1.6 | 0.00 | 0.00 | 0.00 | 97 | 1021.8 |
| 20260502110817 | 11 | 327 | 0.0 | 1.6 | 0.00 | 0.00 | 0.00 | 97 | 1021.8 |
| 20260502110315 | 11 | 309 | 1.6 | 3.2 | 0.00 | 0.00 | 0.00 | 97 | 1021.7 |
| 20260502105812 | 11 | 326 | 0.0 | 1.6 | 0.00 | 0.00 | 0.00 | 97 | 1021.5 |
| 20260502105308 | 11 | 230 | 0.0 | 1.6 | 0.00 | 0.00 | 0.00 | 97 | 1021.5 |
| 20260502104806 | 11 | 354 | 1.6 | 3.2 | 0.00 | 0.00 | 0.00 | 97 | 1021.5 |
| 20260502104303 | 11 | 348 | 0.0 | 1.6 | 0.00 | 0.00 | 0.00 | 97 | 1021.4 |
| 20260502103801 | 11 | 320 | 0.0 | 1.6 | 0.00 | 0.00 | 0.00 | 97 | 1021.3 |
| 20260502103258 | 11 | 300 | 0.0 | 1.6 | 0.00 | 0.00 | 0.00 | 97 | 1021.3 |
| 20260502102755 | 11 | 310 | 0.0 | 0.0 | 0.00 | 0.00 | 0.00 | 97 | 1021.3 |
| 20260502102251 | 11 | 321 | 0.0 | 0.0 | 0.00 | 0.00 | 0.00 | 97 | 1021.2 |
| 20260502101750 | 11 | 337 | 0.0 | 0.0 | 0.00 | 0.00 | 0.00 | 97 | 1021.0 |
| 20260502101247 | 11 | 317 | 3.2 | 3.2 | 0.00 | 0.00 | 0.00 | 97 | 1021.1 |
| 20260502100745 | 11 | 335 | 0.0 | 0.0 | 0.00 | 0.00 | 0.00 | 97 | 1021.0 |
| 20260502100244 | 11 | 321 | 0.0 | 0.0 | 0.00 | 0.00 | 0.00 | 97 | 1020.8 |
| 20260502091218 | 11 | 313 | 0.0 | 0.0 | 0.00 | 0.00 | 0.00 | 97 | 1019.9 |
| 20260502090715 | 11 | 245 | 0.0 | 0.0 | 0.00 | 0.00 | 0.00 | 97 | 1019.9 |
| 20260502090212 | 11 | 325 | 0.0 | 1.6 | 0.00 | 0.00 | 0.00 | 97 | 1019.7 |
| 20260502071107 | 12 | 358 | 0.0 | 3.2 | 0.00 | 0.00 | 0.00 | 98 | 1019.9 |
| 20260502070605 | 12 | 343 | 0.0 | 1.6 | 0.00 | 0.00 | 0.00 | 99 | 1020.1 |
| 20260502065601 | 12 | 333 | 0.0 | 0.0 | 0.00 | 0.00 | 0.00 | 99 | 1019.6 |
| 20260502065058 | 12 | 100 | 1.6 | 1.6 | 0.00 | 0.00 | 0.00 | 99 | 1019.7 |
| 20260502064557 | 12 | 28 | 0.0 | 3.2 | 0.00 | 0.00 | 0.00 | 99 | 1019.8 |
| 20260502064054 | 12 | 3 | 1.6 | 1.6 | 0.00 | 0.00 | 0.00 | 99 | 1019.5 |
| 20260502063551 | 12 | 1 | 0.0 | 3.2 | 0.00 | 0.00 | 0.00 | 99 | 1019.6 |
| 20260502063049 | 12 | 50 | 0.0 | 3.2 | 0.00 | 0.00 | 0.00 | 99 | 1019.5 |
| 20260502062546 | 12 | 11 | 1.6 | 1.6 | 0.00 | 0.00 | 0.00 | 99 | 1019.5 |
| 20260502062044 | 12 | 19 | 1.6 | 4.8 | 0.00 | 0.00 | 0.00 | 99 | 1019.5 |
| 20260502061542 | 12 | 335 | 0.0 | 1.6 | 0.00 | 0.00 | 0.00 | 99 | 1019.6 |
| 20260502061039 | 12 | 32 | 0.0 | 1.6 | 0.00 | 0.00 | 0.00 | 99 | 1019.3 |
| 20260502060534 | 12 | 41 | 0.0 | 1.6 | 0.00 | 0.00 | 0.00 | 99 | 1019.4 |
| 20260502060031 | 12 | 359 | 0.0 | 8.0 | 0.00 | 0.00 | 0.00 | 99 | 1019.4 |
| 20260502055528 | 12 | 55 | 3.2 | 8.0 | 0.00 | 0.00 | 0.00 | 99 | 1019.6 |
| 20260502055027 | 12 | 39 | 0.0 | 1.6 | 0.00 | 0.00 | 0.00 | 99 | 1019.5 |
| 20260502054525 | 12 | 262 | 1.6 | 4.8 | 0.00 | 0.00 | 0.00 | 99 | 1019.6 |
| 20260502054022 | 12 | 342 | 0.0 | 1.6 | 0.00 | 0.00 | 0.00 | 99 | 1019.5 |
| 20260502053519 | 12 | 35 | 0.0 | 3.2 | 0.00 | 0.00 | 0.00 | 99 | 1019.4 |
| 20260502053017 | 12 | 339 | 0.0 | 3.2 | 0.00 | 0.00 | 0.00 | 99 | 1019.3 |
| 20260502052515 | 12 | 47 | 1.6 | 3.2 | 0.00 | 0.00 | 0.00 | 99 | 1019.3 |
| 20260502052013 | 12 | 49 | 0.0 | 1.6 | 0.00 | 0.00 | 0.00 | 99 | 1019.6 |
| 20260502051510 | 12 | 344 | 0.0 | 1.6 | 0.00 | 0.00 | 0.00 | 99 | 1019.4 |
| 20260502051008 | 12 | 7 | 0.0 | 1.6 | 0.00 | 0.00 | 0.00 | 99 | 1019.3 |
| 20260502050504 | 12 | 319 | 1.6 | 1.6 | 0.00 | 0.00 | 0.00 | 99 | 1019.5 |
| 20260502050001 | 12 | 50 | 0.0 | 1.6 | 0.00 | 11.91 | 11.91 | 99 | 1019.2 |
| 20260502045457 | 12 | 106 | 0.0 | 4.8 | 0.00 | 11.91 | 11.91 | 99 | 1019.4 |
| 20260502044955 | 12 | 356 | 3.2 | 3.2 | 0.00 | 11.91 | 11.91 | 99 | 1019.5 |
| 20260502044450 | 12 | 279 | 3.2 | 4.8 | 0.00 | 11.91 | 11.91 | 99 | 1019.4 |
| 20260502043948 | 12 | 224 | 0.0 | 1.6 | 0.00 | 11.91 | 11.91 | 99 | 1019.3 |
| 20260502043445 | 12 | 23 | 1.6 | 3.2 | 0.00 | 11.91 | 11.91 | 99 | 1019.1 |
| 20260502042944 | 12 | 293 | 0.0 | 3.2 | 0.00 | 11.91 | 11.91 | 99 | 1018.9 |
| 20260502042442 | 12 | 78 | 1.6 | 3.2 | 0.00 | 11.91 | 11.91 | 99 | 1019.2 |
| 20260502041939 | 12 | 350 | 0.0 | 3.2 | 0.00 | 11.91 | 11.91 | 99 | 1019.3 |
| 20260502041437 | 12 | 53 | 1.6 | 3.2 | 0.00 | 11.91 | 11.91 | 99 | 1019.0 |
| 20260502040933 | 12 | 44 | 1.6 | 3.2 | 0.00 | 11.91 | 11.91 | 99 | 1019.3 |
| 20260502040430 | 12 | 301 | 1.6 | 4.8 | 0.00 | 11.91 | 11.91 | 99 | 1019.5 |
| 20260502035926 | 12 | 81 | 0.0 | 3.2 | 0.00 | 11.91 | 11.91 | 99 | 1019.6 |
| 20260502035423 | 12 | 13 | 0.0 | 3.2 | 0.00 | 11.91 | 11.91 | 99 | 1019.3 |
| 20260502034921 | 12 | 290 | 1.6 | 3.2 | 0.00 | 11.91 | 11.91 | 99 | 1019.4 |
| 20260502034419 | 12 | 238 | 1.6 | 3.2 | 0.00 | 11.91 | 11.91 | 99 | 1019.2 |
| 20260502033917 | 12 | 171 | 1.6 | 3.2 | 0.00 | 11.91 | 11.91 | 99 | 1019.0 |
| 20260502033414 | 12 | 21 | 1.6 | 3.2 | 0.00 | 11.91 | 11.91 | 99 | 1019.0 |
| 20260502032911 | 12 | 339 | 0.0 | 3.2 | 0.00 | 11.91 | 11.91 | 99 | 1018.8 |
| 20260502032408 | 12 | 97 | 3.2 | 9.7 | 0.00 | 11.91 | 11.91 | 99 | 1019.1 |
| 20260502031905 | 12 | 258 | 4.8 | 4.8 | 0.00 | 11.91 | 11.91 | 99 | 1018.7 |
| 20260502031403 | 12 | 291 | 3.2 | 4.8 | 0.00 | 11.91 | 11.91 | 99 | 1018.6 |
| 20260502030901 | 12 | 225 | 3.2 | 4.8 | 0.00 | 11.91 | 11.91 | 99 | 1018.4 |
| 20260502030359 | 12 | 145 | 0.0 | 4.8 | 0.00 | 11.91 | 11.91 | 99 | 1018.4 |
| 20260502025856 | 13 | 343 | 0.0 | 3.2 | 0.00 | 11.91 | 11.91 | 99 | 1018.2 |
| 20260502025353 | 13 | 314 | 1.6 | 3.2 | 0.00 | 11.91 | 11.91 | 99 | 1017.8 |
| 20260502024851 | 13 | 359 | 3.2 | 3.2 | 0.18 | 11.91 | 11.91 | 99 | 1017.8 |
| 20260502024349 | 13 | 312 | 0.0 | 4.8 | 0.00 | 11.89 | 11.89 | 99 | 1017.6 |
| 20260502023847 | 13 | 319 | 1.6 | 3.2 | 0.18 | 11.89 | 11.89 | 99 | 1017.4 |
| 20260502023344 | 13 | 55 | 1.6 | 3.2 | 0.18 | 11.89 | 11.89 | 99 | 1017.7 |
| 20260502022841 | 13 | 21 | 1.6 | 3.2 | 0.30 | 11.86 | 11.86 | 99 | 1017.9 |
| 20260502022338 | 13 | 12 | 1.6 | 4.8 | 0.30 | 11.84 | 11.84 | 99 | 1018.1 |
| 20260502021835 | 13 | 278 | 1.6 | 3.2 | 0.30 | 11.81 | 11.81 | 99 | 1017.7 |
| 20260502021332 | 13 | 333 | 0.0 | 3.2 | 0.30 | 11.79 | 11.79 | 99 | 1017.6 |
| 20260502020829 | 13 | 221 | 1.6 | 3.2 | 0.30 | 11.76 | 11.76 | 99 | 1017.7 |
| 20260502020327 | 13 | 269 | 0.0 | 3.2 | 0.13 | 11.71 | 11.71 | 99 | 1017.5 |
| 20260502015824 | 13 | 103 | 1.6 | 3.2 | 0.18 | 11.68 | 11.68 | 99 | 1017.6 |
| 20260502015321 | 13 | 349 | 0.0 | 4.8 | 0.30 | 11.68 | 11.68 | 99 | 1017.7 |
| 20260502014818 | 13 | 58 | 1.6 | 1.6 | 0.13 | 11.66 | 11.66 | 99 | 1017.5 |
| 20260502014315 | 13 | 127 | 1.6 | 9.7 | 0.00 | 11.63 | 11.63 | 99 | 1017.6 |
| 20260502013811 | 13 | 24 | 0.0 | 9.7 | 0.30 | 11.63 | 11.63 | 99 | 1016.9 |
| 20260502013307 | 13 | 21 | 1.6 | 4.8 | 0.61 | 11.61 | 11.61 | 99 | 1016.9 |
| 20260502012803 | 13 | 312 | 0.0 | 4.8 | 0.79 | 11.58 | 11.58 | 99 | 1016.6 |
| 20260502012301 | 13 | 331 | 0.0 | 3.2 | 0.48 | 11.51 | 11.51 | 99 | 1016.8 |
| 20260502011758 | 13 | 31 | 1.6 | 4.8 | 0.48 | 11.46 | 11.46 | 99 | 1016.9 |
| 20260502011254 | 13 | 10 | 0.0 | 8.0 | 0.18 | 11.40 | 11.40 | 99 | 1016.8 |
| 20260502010752 | 14 | 30 | 0.0 | 8.0 | 0.13 | 11.38 | 11.38 | 99 | 1017.1 |
| 20260502010248 | 14 | 307 | 1.6 | 4.8 | 0.18 | 11.35 | 11.35 | 99 | 1017.2 |
| 20260502005745 | 14 | 309 | 1.6 | 4.8 | 0.30 | 11.35 | 11.35 | 99 | 1016.8 |
| 20260502005243 | 14 | 307 | 1.6 | 1.6 | 0.13 | 11.33 | 11.33 | 99 | 1016.1 |
| 20260502004740 | 14 | 36 | 0.0 | 1.6 | 0.18 | 11.30 | 11.30 | 99 | 1015.5 |
| 20260502004236 | 14 | 55 | 1.6 | 4.8 | 0.18 | 11.30 | 11.30 | 99 | 1015.0 |
| 20260502003734 | 14 | 30 | 1.6 | 3.2 | 0.00 | 11.28 | 11.28 | 99 | 1015.1 |
| 20260502003231 | 14 | 68 | 3.2 | 3.2 | 0.13 | 11.28 | 11.28 | 99 | 1015.8 |
| 20260502002726 | 14 | 359 | 0.0 | 3.2 | 0.00 | 11.25 | 11.25 | 99 | 1015.9 |
| 20260502002224 | 14 | 24 | 1.6 | 1.6 | 0.18 | 11.25 | 11.25 | 99 | 1016.2 |
| 20260502001721 | 15 | 286 | 1.6 | 3.2 | 0.48 | 11.25 | 11.25 | 99 | 1016.1 |
| 20260502001219 | 15 | 313 | 1.6 | 1.6 | 0.61 | 11.23 | 11.23 | 99 | 1015.7 |
| 20260502000716 | 14 | 337 | 0.0 | 1.6 | 0.43 | 11.15 | 11.15 | 99 | 1015.6 |
| 20260502000214 | 14 | 312 | 0.0 | 1.6 | 0.43 | 11.10 | 11.10 | 99 | 1016.2 |
| 20260501235710 | 14 | 290 | 0.0 | 1.6 | 0.13 | 11.05 | 11.05 | 99 | 1016.3 |
| 20260501235206 | 15 | 5 | 1.6 | 1.6 | 0.00 | 11.02 | 11.02 | 99 | 1016.4 |
| 20260501234702 | 15 | 356 | 0.0 | 1.6 | 0.00 | 11.02 | 11.02 | 99 | 1015.3 |
| 20260501234159 | 15 | 22 | 0.0 | 0.0 | 0.18 | 11.02 | 11.02 | 99 | 1015.4 |
| 20260501233657 | 15 | 32 | 1.6 | 3.2 | 0.18 | 11.02 | 11.02 | 99 | 1014.8 |
| 20260501233154 | 15 | 15 | 0.0 | 1.6 | 0.00 | 11.00 | 11.00 | 99 | 1014.9 |
| 20260501232650 | 15 | 16 | 0.0 | 1.6 | 0.30 | 11.00 | 11.00 | 99 | 1015.0 |
| 20260501232148 | 15 | 328 | 3.2 | 3.2 | 1.27 | 10.97 | 10.97 | 99 | 1014.2 |
| 20260501231645 | 15 | 45 | 1.6 | 3.2 | 1.85 | 10.92 | 10.92 | 99 | 1014.4 |
| 20260501231143 | 15 | 37 | 0.0 | 1.6 | 1.07 | 10.74 | 10.74 | 99 | 1015.3 |
| 20260501230641 | 15 | 72 | 1.6 | 1.6 | 0.79 | 10.62 | 10.62 | 99 | 1016.0 |
| 20260501230139 | 15 | 295 | 1.6 | 4.8 | 0.61 | 10.57 | 10.57 | 99 | 1015.8 |
| 20260501225636 | 15 | 74 | 3.2 | 3.2 | 0.13 | 10.49 | 10.49 | 99 | 1014.4 |
| 20260501225133 | 15 | 62 | 1.6 | 3.2 | 0.00 | 10.46 | 10.46 | 99 | 1014.9 |
| 20260501224630 | 15 | 168 | 3.2 | 8.0 | 0.00 | 10.46 | 10.46 | 99 | 1014.5 |
| 20260501224127 | 15 | 72 | 1.6 | 8.0 | 0.00 | 10.46 | 10.46 | 99 | 1013.5 |
| 20260501223623 | 15 | 51 | 4.8 | 4.8 | 0.00 | 10.46 | 10.46 | 99 | 1013.7 |
| 20260501223120 | 15 | 25 | 1.6 | 9.7 | 0.00 | 10.46 | 10.46 | 99 | 1013.9 |
| 20260501222616 | 15 | 125 | 1.6 | 3.2 | 0.00 | 10.46 | 10.46 | 99 | 1013.5 |
| 20260501222113 | 15 | 25 | 4.8 | 4.8 | 0.00 | 10.46 | 10.46 | 99 | 1013.8 |
| 20260501221610 | 15 | 89 | 4.8 | 8.0 | 0.00 | 10.46 | 10.46 | 99 | 1014.0 |
| 20260501221107 | 15 | 53 | 1.6 | 11.3 | 0.00 | 10.46 | 10.46 | 99 | 1014.4 |
| 20260501220605 | 15 | 359 | 0.0 | 1.6 | 0.00 | 10.46 | 10.46 | 99 | 1014.5 |
| 20260501215558 | 15 | 29 | 0.0 | 3.2 | 0.00 | 10.46 | 10.46 | 99 | 1014.6 |
| 20260501215053 | 15 | 3 | 0.0 | 3.2 | 0.00 | 10.46 | 10.46 | 99 | 1015.0 |
| 20260501214549 | 16 | 48 | 1.6 | 3.2 | 0.00 | 10.46 | 10.46 | 99 | 1015.3 |
| 20260501214044 | 15 | 342 | 0.0 | 1.6 | 0.18 | 10.46 | 10.46 | 99 | 1015.4 |
| 20260501213542 | 16 | 96 | 1.6 | 1.6 | 0.30 | 10.46 | 10.46 | 99 | 1014.8 |
| 20260501213038 | 16 | 335 | 1.6 | 3.2 | 0.00 | 10.41 | 10.41 | 99 | 1014.5 |
| 20260501212534 | 15 | 349 | 0.0 | 1.6 | 0.00 | 10.41 | 10.41 | 99 | 1014.8 |
| 20260501212031 | 16 | 10 | 0.0 | 0.0 | 0.18 | 10.41 | 10.41 | 99 | 1015.1 |
| 20260501211528 | 16 | 118 | 1.6 | 1.6 | 0.18 | 10.41 | 10.41 | 99 | 1014.3 |
| 20260501211026 | 16 | 82 | 1.6 | 4.8 | 0.00 | 10.39 | 10.39 | 99 | 1013.2 |
| 20260501210522 | 16 | 41 | 1.6 | 3.2 | 0.13 | 10.39 | 10.39 | 99 | 1013.0 |
| 20260501210019 | 16 | 26 | 1.6 | 1.6 | 0.30 | 10.39 | 10.39 | 99 | 1013.4 |
| 20260501205515 | 16 | 319 | 0.0 | 1.6 | 0.30 | 10.36 | 10.36 | 99 | 1014.1 |
| 20260501205014 | 16 | 2 | 0.0 | 3.2 | 0.48 | 10.34 | 10.34 | 99 | 1013.2 |
| 20260501204509 | 16 | 19 | 1.6 | 3.2 | 0.30 | 10.29 | 10.29 | 99 | 1013.9 |
| 20260501204005 | 16 | 315 | 0.0 | 1.6 | 0.30 | 10.26 | 10.26 | 99 | 1014.4 |
| 20260501203502 | 16 | 100 | 3.2 | 4.8 | 0.30 | 10.24 | 10.24 | 99 | 1013.6 |
| 20260501203000 | 16 | 352 | 1.6 | 4.8 | 0.43 | 10.21 | 10.21 | 99 | 1013.5 |
| 20260501202456 | 16 | 16 | 0.0 | 3.2 | 1.37 | 10.16 | 10.16 | 99 | 1013.7 |
| 20260501201952 | 16 | 73 | 0.0 | 3.2 | 1.19 | 10.11 | 10.11 | 99 | 1013.1 |
| 20260501201450 | 16 | 79 | 0.0 | 1.6 | 0.30 | 9.91 | 9.91 | 99 | 1013.6 |
| 20260501200947 | 16 | 16 | 0.0 | 3.2 | 0.43 | 9.88 | 9.88 | 99 | 1013.5 |
| 20260501200445 | 16 | 64 | 1.6 | 3.2 | 0.48 | 9.86 | 9.86 | 99 | 1013.5 |
| 20260501195941 | 16 | 3 | 0.0 | 1.6 | 0.00 | 9.78 | 9.78 | 99 | 1013.5 |
| 20260501195438 | 16 | 341 | 0.0 | 1.6 | 0.13 | 9.78 | 9.78 | 99 | 1013.1 |
| 20260501194933 | 16 | 18 | 1.6 | 3.2 | 0.61 | 9.75 | 9.75 | 99 | 1013.0 |
| 20260501194429 | 16 | 2 | 1.6 | 1.6 | 0.61 | 9.73 | 9.73 | 99 | 1013.1 |
| 20260501193925 | 16 | 27 | 1.6 | 1.6 | 0.00 | 9.63 | 9.63 | 99 | 1013.1 |
| 20260501193424 | 16 | 27 | 0.0 | 1.6 | 0.18 | 9.63 | 9.63 | 99 | 1013.2 |
| 20260501192921 | 16 | 342 | 0.0 | 1.6 | 0.79 | 9.63 | 9.63 | 99 | 1013.4 |
| 20260501192418 | 16 | 306 | 0.0 | 0.0 | 1.02 | 9.60 | 9.60 | 99 | 1012.9 |
| 20260501191915 | 16 | 141 | 0.0 | 3.2 | 0.43 | 9.50 | 9.50 | 99 | 1013.1 |
| 20260501191412 | 16 | 62 | 0.0 | 1.6 | 0.00 | 9.42 | 9.42 | 99 | 1013.0 |
| 20260501190909 | 16 | 46 | 1.6 | 1.6 | 0.18 | 9.42 | 9.42 | 99 | 1013.2 |
| 20260501190406 | 16 | 315 | 0.0 | 1.6 | 0.48 | 9.42 | 9.42 | 99 | 1013.7 |
| 20260501185900 | 16 | 315 | 1.6 | 3.2 | 0.79 | 9.40 | 9.40 | 99 | 1013.2 |
| 20260501185357 | 16 | 32 | 1.6 | 3.2 | 0.71 | 9.32 | 9.32 | 99 | 1013.2 |
| 20260501184853 | 16 | 53 | 0.0 | 3.2 | 0.61 | 9.25 | 9.25 | 99 | 1012.8 |
| 20260501184349 | 16 | 36 | 1.6 | 3.2 | 0.61 | 9.19 | 9.19 | 99 | 1013.5 |
| 20260501183844 | 16 | 20 | 0.0 | 1.6 | 0.30 | 9.12 | 9.12 | 99 | 1013.4 |
| 20260501183342 | 16 | 316 | 0.0 | 1.6 | 0.18 | 9.09 | 9.09 | 99 | 1013.3 |
| 20260501182838 | 16 | 15 | 0.0 | 4.8 | 0.48 | 9.07 | 9.07 | 99 | 1012.6 |
| 20260501182335 | 16 | 91 | 1.6 | 3.2 | 0.97 | 9.04 | 9.04 | 99 | 1011.9 |
| 20260501181832 | 16 | 78 | 4.8 | 8.0 | 0.61 | 8.97 | 8.97 | 99 | 1011.3 |
| 20260501181329 | 16 | 86 | 3.2 | 3.2 | 0.18 | 8.86 | 8.86 | 99 | 1011.4 |
| 20260501180826 | 16 | 62 | 1.6 | 3.2 | 0.30 | 8.86 | 8.86 | 99 | 1012.2 |
| 20260501180322 | 16 | 9 | 0.0 | 3.2 | 0.43 | 8.84 | 8.84 | 99 | 1012.7 |
| 20260501175820 | 16 | 342 | 0.0 | 3.2 | 0.30 | 8.79 | 8.79 | 99 | 1013.2 |
| 20260501175316 | 16 | 46 | 0.0 | 3.2 | 0.30 | 8.76 | 8.76 | 99 | 1013.5 |
| 20260501174813 | 16 | 56 | 0.0 | 3.2 | 0.30 | 8.74 | 8.74 | 99 | 1013.4 |
| 20260501174310 | 16 | 344 | 1.6 | 1.6 | 0.36 | 8.71 | 8.71 | 99 | 1013.6 |
| 20260501173809 | 16 | 41 | 0.0 | 0.0 | 0.30 | 8.69 | 8.69 | 99 | 1013.8 |
| 20260501173307 | 16 | 344 | 0.0 | 3.2 | 0.30 | 8.66 | 8.66 | 99 | 1014.2 |
| 20260501172801 | 16 | 31 | 0.0 | 1.6 | 0.18 | 8.64 | 8.64 | 99 | 1014.0 |
| 20260501172256 | 16 | 3 | 1.6 | 4.8 | 0.00 | 8.61 | 8.61 | 99 | 1013.8 |